"2009-05-07 00:00:00",864319,7.356,293.2,3.194,0.872,18.74,109.1389,22.68,23.65,13.58,0,111.1,13.15,23.51,255.2
"2009-05-07 00:00:30",864320,8.33,287.4,4.461,0.39,18.73,109.149,22.71,23.68,13.27,0,111.1,13.15,23.54,249.4
"2009-05-07 00:01:00",864321,7.781,292.9,2.591,0.414,18.65,109.1668,22.75,23.69,13.3,0,111.1,13.15,23.59,254.9
"2009-05-07 00:01:30",864322,7.241,291.6,2.77,0.418,18.63,109.1678,22.76,23.7,12.94,0,111.1,13.15,23.59,253.6
"2009-05-07 00:02:00",864323,6.282,289.4,3.87,0.421,18.63,109.1681,22.76,23.73,13.2,0,111.1,13.15,23.59,251.4
"2009-05-07 00:02:30",864324,6.389,290.5,5.774,0.705,18.57,109.1672,22.76,23.73,12.94,0,111.1,13.15,23.59,252.5
"2009-05-07 00:03:00",864325,7.955,294.4,4.879,0.461,18.57,109.1669,22.75,23.75,13.15,0,111.1,13.15,23.59,256.4
"2009-05-07 00:03:30",864326,7.92,294.9,1.337,0.259,18.61,109.1669,22.75,23.76,13.21,0,111.1,13.15,23.59,256.9
"2009-05-07 00:04:00",864327,7.178,300.1,2.327,0.466,18.65,109.1671,22.76,23.77,13.39,0,111.1,13.15,23.59,262.1
"2009-05-07 00:04:30",864328,6.761,299.7,4.652,0.457,18.73,109.1681,22.76,23.78,13.54,0,111.1,13.15,23.59,261.7
"2009-05-07 00:05:00",864329,8.37,297.2,2.367,0.596,18.64,109.1693,22.76,23.78,13.09,0,111.1,13.15,23.59,259.2
"2009-05-07 00:05:30",864330,8.97,302.4,3.402,0.415,18.63,109.171,22.77,23.79,12.91,0,111.1,13.15,23.60,264.4
"2009-05-07 00:06:00",864331,9.27,299.6,3.888,0.376,18.7,109.1661,22.75,23.8,12.98,0,111.1,13.15,23.58,261.6
"2009-05-07 00:06:30",864332,9.5,285,4.158,0.498,18.77,109.1656,22.75,23.79,13.21,0,111.1,13.14,23.58,247.0
"2009-05-07 00:07:00",864333,9.71,292,3.886,0.62,18.8,109.165,22.75,23.78,13.32,0,111.1,13.14,23.58,254.0
"2009-05-07 00:07:30",864334,9.99,297.4,5.145,0.403,18.71,109.165,22.75,23.77,13.11,0,111.1,13.14,23.58,259.4
"2009-05-07 00:08:00",864335,10.67,303.1,2.271,0.661,18.74,109.1647,22.75,23.76,12.94,0,111.1,13.14,23.58,265.1
"2009-05-07 00:08:30",864336,10.68,293.8,3.087,0.876,18.77,109.165,22.75,23.76,13.05,0,111.1,13.14,23.58,255.8
"2009-05-07 00:09:00",864337,9.81,293.6,3.773,0.859,18.78,109.1642,22.75,23.76,12.77,0,111.1,13.14,23.58,255.6
"2009-05-07 00:09:30",864338,9,294.7,2.438,0.488,18.84,109.1505,22.71,23.75,13.31,0,111.1,13.14,23.54,256.7
"2009-05-07 00:10:00",864339,9.96,292.8,6.299,0.651,18.8,109.1404,22.69,23.74,13.29,0,111.1,13.14,23.52,254.8
"2009-05-07 00:10:30",864340,10.86,296,1.013,0.305,18.75,109.134,22.67,23.73,12.69,0,111.1,13.14,23.50,258.0
"2009-05-07 00:11:00",864341,9.07,298.2,3.267,1.093,18.79,109.132,22.66,23.72,12.5,0,111.1,13.14,23.50,260.2
"2009-05-07 00:11:30",864342,8.66,297.9,2.646,1.215,18.79,109.1329,22.67,23.72,12.86,0,111.1,13.14,23.50,259.9
"2009-05-07 00:12:00",864343,10.11,296.8,0.927,0.29,18.8,109.1353,22.67,23.7,12.35,0,111.1,13.14,23.50,258.8
"2009-05-07 00:12:30",864344,9.89,298.6,2.002,0.21,18.81,109.1338,22.67,23.69,12.59,0,111.1,13.14,23.50,260.6
"2009-05-07 00:13:00",864345,10.73,297.4,3.086,0.642,18.83,109.1337,22.67,23.69,12.52,0,111.1,13.15,23.50,259.4
"2009-05-07 00:13:30",864346,9.82,296,3.907,0.734,18.86,109.1257,22.65,23.68,12.51,0,111.1,13.15,23.48,258.0
"2009-05-07 00:14:00",864347,9.88,299.2,5.885,0.902,18.85,109.1199,22.63,23.66,12.67,0,111.1,13.15,23.46,261.2
"2009-05-07 00:14:30",864348,10.66,299.1,2.671,0.659,18.91,109.1143,22.62,23.67,12.92,0,111.1,13.15,23.45,261.1
"2009-05-07 00:15:00",864349,12.04,296.3,2.933,0.361,18.94,109.1111,22.61,23.66,12.43,0,111.1,13.15,23.44,258.3
"2009-05-07 00:15:30",864350,12.36,300.3,2.206,0.632,19,109.1154,22.62,23.65,12.35,0,111.1,13.15,23.45,262.3
"2009-05-07 00:16:00",864351,11.1,306,2.153,0.416,18.99,109.1166,22.63,23.64,12.3,0,111.1,13.15,23.46,268.0
"2009-05-07 00:16:30",864352,10.27,303.8,1.215,0.357,18.92,109.1185,22.63,23.62,12.36,0,111.1,13.15,23.46,265.8
"2009-05-07 00:17:00",864353,9.77,305.5,2.367,0.619,18.92,109.1056,22.6,23.62,12.3,0,111.1,13.15,23.43,267.5
"2009-05-07 00:17:30",864354,8.84,304.4,6.345,0.719,18.92,109.0957,22.57,23.6,12.31,0,111.1,13.15,23.40,266.4
"2009-05-07 00:18:00",864355,10.49,310,1.182,0.324,18.94,109.0896,22.56,23.59,12.33,0,111.1,13.15,23.39,272.0
"2009-05-07 00:18:30",864356,10.61,307.8,1.541,0.178,18.91,109.0897,22.56,23.57,12.31,0,111.1,13.15,23.39,269.8
"2009-05-07 00:19:00",864357,10,307.7,3.955,0.329,18.94,109.0912,22.56,23.56,12.31,0,111.1,13.15,23.39,269.7
"2009-05-07 00:19:30",864358,9.7,298.9,3.462,0.402,18.89,109.0915,22.56,23.56,12.29,0,111.1,13.15,23.39,260.9
"2009-05-07 00:20:00",864359,10.37,295.4,1.953,0.909,18.84,109.0909,22.56,23.55,12.36,0,111.1,13.15,23.39,257.4
"2009-05-07 00:20:30",864360,10.01,301.5,5.429,0.677,18.9,109.0915,22.56,23.55,12.43,0,111.1,13.15,23.39,263.5
"2009-05-07 00:21:00",864361,9.76,303.4,3.561,0.52,18.86,109.0934,22.57,23.54,12.45,0,111.1,13.15,23.40,265.4
"2009-05-07 00:21:30",864362,9.97,300,2.27,0.353,18.84,109.0946,22.57,23.54,12.43,0,111.1,13.15,23.40,262.0
"2009-05-07 00:22:00",864363,10.3,301.9,2.33,0.664,18.85,109.0908,22.56,23.53,12.54,0,111.1,13.15,23.39,263.9
"2009-05-07 00:22:30",864364,9.02,302.3,1.406,0.282,18.86,109.0799,22.53,23.52,12.59,0,111.1,13.15,23.36,264.3
"2009-05-07 00:23:00",864365,9.58,304.7,3.037,0.406,18.84,109.0733,22.51,23.53,12.62,0,111.1,13.15,23.34,266.7
"2009-05-07 00:23:30",864366,8.91,300.5,6.045,0.547,18.88,109.0723,22.51,23.52,12.67,0,111.1,13.15,23.34,262.5
"2009-05-07 00:24:00",864367,11.02,299.3,2.89,0.501,18.88,109.0702,22.51,23.51,12.58,0,111.1,13.15,23.34,261.3
"2009-05-07 00:24:30",864368,10.67,301,3.098,0.524,18.93,109.0648,22.49,23.51,12.43,0,111.1,13.14,23.32,263.0
"2009-05-07 00:25:00",864369,10.24,302.9,1.505,0.125,18.9,109.0642,22.49,23.49,12.44,0,111.1,13.14,23.32,264.9
"2009-05-07 00:25:30",864370,10.33,303.2,1.176,0.19,18.93,109.0655,22.49,23.49,12.43,0,111.1,13.14,23.32,265.2
"2009-05-07 00:26:00",864371,10.26,305.2,1.412,0.228,18.9,109.0664,22.5,23.48,12.5,0,111.1,13.14,23.33,267.2
"2009-05-07 00:26:30",864372,10.62,308.8,2.539,0.323,18.95,109.0661,22.5,23.46,12.54,0,111.1,13.14,23.33,270.8
"2009-05-07 00:27:00",864373,10.39,313.6,1.001,0.339,18.97,109.0597,22.48,23.47,12.6,0,111.1,13.14,23.31,275.6
"2009-05-07 00:27:30",864374,10.25,314,1.752,0.248,18.94,109.0532,22.46,23.46,12.56,0,111.1,13.14,23.29,276.0
"2009-05-07 00:28:00",864375,10.01,312.7,1.506,0.298,18.95,109.0363,22.42,23.45,12.55,0,111.1,13.14,23.25,274.7
"2009-05-07 00:28:30",864376,10.14,307.8,2.484,0.235,18.98,109.0327,22.41,23.44,12.55,0,111.1,13.14,23.24,269.8
"2009-05-07 00:29:00",864377,11.12,305,1.625,0.461,18.98,109.0327,22.41,23.44,12.51,0,111.1,13.15,23.24,267.0
"2009-05-07 00:29:30",864378,11.07,303.7,1.703,0.501,18.96,109.0327,22.41,23.42,12.56,0,111.1,13.15,23.24,265.7
"2009-05-07 00:30:00",864379,9.86,310,4.451,0.415,18.97,109.0327,22.41,23.42,12.57,0,111.1,13.15,23.24,272.0
"2009-05-07 00:30:30",864380,10.02,312,1.106,0.451,18.97,109.0327,22.41,23.42,12.59,0,111.1,13.15,23.24,274.0
"2009-05-07 00:31:00",864381,9.65,303.9,3.031,0.556,18.93,109.0327,22.41,23.41,12.77,0,111.1,13.15,23.24,265.9
"2009-05-07 00:31:30",864382,10.23,307.3,2.139,0.298,19,109.0327,22.41,23.42,12.61,0,111.1,13.15,23.24,269.3
"2009-05-07 00:32:00",864383,10.14,306.1,2.539,0.596,18.99,109.0324,22.41,23.4,12.64,0,111.1,13.15,23.24,268.1
"2009-05-07 00:32:30",864384,9.07,308.4,3.097,0.331,18.99,109.0304,22.4,23.39,12.6,0,111.1,13.15,23.23,270.4
"2009-05-07 00:33:00",864385,11.17,306.4,3.385,0.469,19,109.0293,22.4,23.4,12.58,0,111.1,13.15,23.23,268.4
"2009-05-07 00:33:30",864386,9.91,299.6,2.659,0.581,19.04,109.0217,22.38,23.39,12.58,0,111.1,13.15,23.21,261.6
"2009-05-07 00:34:00",864387,9.58,306.8,1.702,0.291,19.03,109.0139,22.36,23.39,12.58,0,111.1,13.15,23.19,268.8
"2009-05-07 00:34:30",864388,9.82,308.6,1.649,0.318,19.07,109.0054,22.34,23.38,12.65,0,111.1,13.15,23.17,270.6
"2009-05-07 00:35:00",864389,9.85,306.1,1.42,0.268,19.09,108.9998,22.33,23.37,12.68,0,111.1,13.15,23.16,268.1
"2009-05-07 00:35:30",864390,9.18,307.4,1.56,0.444,19.03,108.999,22.32,23.36,12.68,0,111.1,13.15,23.15,269.4
"2009-05-07 00:36:00",864391,8.62,304.2,2.911,0.162,19,108.999,22.32,23.34,12.7,0,111.1,13.15,23.15,266.2
"2009-05-07 00:36:30",864392,8.44,304.5,2.343,0.255,18.98,108.999,22.32,23.34,12.69,0,111.1,13.15,23.15,266.5
"2009-05-07 00:37:00",864393,9.05,309.6,4.203,0.618,18.92,108.999,22.32,23.34,12.72,0,111.1,13.15,23.15,271.6
"2009-05-07 00:37:30",864394,9.58,305.9,1.537,0.438,18.96,108.999,22.32,23.33,12.74,0,111.1,13.15,23.15,267.9
"2009-05-07 00:38:00",864395,10.09,308.9,0.857,0.388,19.02,108.999,22.32,23.36,12.71,0,111.1,13.15,23.15,270.9
"2009-05-07 00:38:30",864396,10.15,308,1.578,0.334,19.13,108.999,22.32,23.35,12.73,0,111.1,13.15,23.15,270.0
"2009-05-07 00:39:00",864397,10.35,310.8,1.465,0.5,19.21,108.999,22.32,23.34,12.74,0,111.1,13.15,23.15,272.8
"2009-05-07 00:39:30",864398,9.71,311.5,3.244,0.485,19.31,108.9967,22.32,23.34,12.72,0,111,13.15,23.15,273.5
"2009-05-07 00:40:00",864399,10.53,310.3,2.151,0.299,19.38,108.9869,22.29,23.34,12.78,0,111,13.15,23.12,272.3
"2009-05-07 00:40:30",864400,9.53,309.2,2.407,0.369,19.39,108.9712,22.25,23.33,12.82,0,111.1,13.15,23.08,271.2
"2009-05-07 00:41:00",864401,9.35,307.2,4.206,0.401,19.4,108.9653,22.24,23.3,12.88,0,111.1,13.15,23.07,269.2
"2009-05-07 00:41:30",864402,9.5,309.5,1.914,0.325,19.44,108.9656,22.24,23.3,12.84,0,111,13.15,23.07,271.5
"2009-05-07 00:42:00",864403,9.07,308.3,1.577,0.257,19.45,108.9654,22.24,23.29,12.83,0,111,13.15,23.07,270.3
"2009-05-07 00:42:30",864404,8.45,307,3.943,0.263,19.43,108.9467,22.19,23.26,12.85,0,111,13.15,23.02,269.0
"2009-05-07 00:43:00",864405,8.93,312.3,1.999,0.534,19.41,108.9407,22.17,23.26,12.94,0,111,13.15,23.00,274.3
"2009-05-07 00:43:30",864406,9.49,310,2.711,0.389,19.43,108.9466,22.19,23.26,12.97,0,111,13.15,23.02,272.0
"2009-05-07 00:44:00",864407,9.3,306.7,1.778,0.497,19.43,108.9546,22.21,23.24,13.03,0,111,13.15,23.04,268.7
"2009-05-07 00:44:30",864408,8.67,303.2,0.908,0.328,19.45,108.9384,22.17,23.22,13.05,0,111,13.15,23.00,265.2
"2009-05-07 00:45:00",864409,8.33,307.7,2.559,0.359,19.44,108.9265,22.14,23.2,13.03,0,111,13.15,22.97,269.7
"2009-05-07 00:45:30",864410,7.688,308.2,2.427,0.311,19.43,108.9254,22.13,23.17,13.05,0,111,13.15,22.96,270.2
"2009-05-07 00:46:00",864411,7.403,309.8,1.331,0.361,19.47,108.9266,22.14,23.18,13.04,0,111,13.15,22.97,271.8
"2009-05-07 00:46:30",864412,8.45,309.5,1.558,0.286,19.49,108.9167,22.11,23.16,13.07,0,111,13.16,22.94,271.5
"2009-05-07 00:47:00",864413,7.756,310.1,1.369,0.261,19.44,108.9012,22.07,23.13,13.11,0,111,13.16,22.90,272.1
"2009-05-07 00:47:30",864414,7.394,311.1,1.282,0.129,19.46,108.9009,22.07,23.12,13.19,0,111,13.16,22.90,273.1
"2009-05-07 00:48:00",864415,7.383,310.7,1.121,0.276,19.51,108.9009,22.07,23.1,13.17,0,111,13.16,22.90,272.7
"2009-05-07 00:48:30",864416,7.171,309.9,1.99,0.319,19.47,108.8936,22.05,23.1,13.19,0,111,13.16,22.88,271.9
"2009-05-07 00:49:00",864417,8.27,309.4,2.991,0.358,19.41,108.8792,22.02,23.08,13.27,0,111,13.16,22.84,271.4
"2009-05-07 00:49:30",864418,7.605,303.1,2.088,0.139,19.35,108.8691,21.99,23.08,13.31,0,111,13.16,22.82,265.1
"2009-05-07 00:50:00",864419,8.12,297.9,1.107,0.505,19.4,108.8672,21.99,23.05,13.21,0,111,13.16,22.81,259.9
"2009-05-07 00:50:30",864420,8.62,301.7,1.477,0.268,19.34,108.8672,21.99,23.04,13.18,0,111,13.16,22.81,263.7
"2009-05-07 00:51:00",864421,8.22,303.2,1.013,0.17,19.22,108.8599,21.97,23.03,13.15,0,111,13.16,22.80,265.2
"2009-05-07 00:51:30",864422,8.67,299.7,1.648,0.277,19.19,108.8436,21.92,23.01,13.16,0,111,13.16,22.75,261.7
"2009-05-07 00:52:00",864423,8.5,301.3,1.196,0.243,19.2,108.8348,21.9,22.99,13.18,0,111,13.16,22.73,263.3
"2009-05-07 00:52:30",864424,8.15,302.2,0.841,0.164,19.12,108.8334,21.9,22.99,13.19,0,111,13.16,22.73,264.2
"2009-05-07 00:53:00",864425,8.28,301.7,2.119,0.172,19.02,108.8334,21.9,22.98,13.25,0,111,13.16,22.73,263.7
"2009-05-07 00:53:30",864426,8.63,300.7,1.446,0.239,19.09,108.8334,21.9,22.96,13.37,0,111,13.17,22.73,262.7
"2009-05-07 00:54:00",864427,8.64,301.7,1.759,0.159,19.16,108.8337,21.9,22.96,13.39,0,111,13.17,22.73,263.7
"2009-05-07 00:54:30",864428,8.69,306.3,1.937,0.091,19.24,108.8347,21.9,22.94,13.46,0,111,13.17,22.73,268.3
"2009-05-07 00:55:00",864429,8.27,308.3,1.675,0.211,19.29,108.8356,21.9,22.95,13.46,0,111,13.17,22.73,270.3
"2009-05-07 00:55:30",864430,7.972,310.8,1.171,0.164,19.26,108.8358,21.9,22.94,13.5,0,111,13.17,22.73,272.8
"2009-05-07 00:56:00",864431,7.758,314.2,2.003,0.204,19.19,108.8354,21.9,22.93,13.51,0,111,13.17,22.73,276.2
"2009-05-07 00:56:30",864432,7.623,316.5,1.248,0.226,19.11,108.8416,21.92,22.93,13.54,0,110.9,13.17,22.75,278.5
"2009-05-07 00:57:00",864433,6.911,315.3,1.1,0.259,19.04,108.8427,21.92,22.93,13.52,0,111,13.17,22.75,277.3
"2009-05-07 00:57:30",864434,6.286,321.6,2.892,0.241,18.97,108.8451,21.93,22.93,13.55,0,110.9,13.17,22.76,283.6
"2009-05-07 00:58:00",864435,6.028,322.5,1.579,0.166,18.9,108.8471,21.93,22.92,13.57,0,110.9,13.17,22.76,284.5
"2009-05-07 00:58:30",864436,5.919,325.6,1.687,0.204,18.9,108.8495,21.94,22.93,13.56,0,110.9,13.17,22.77,287.6
"2009-05-07 00:59:00",864437,6.256,327.8,0.555,0.152,18.9,108.8528,21.95,22.92,13.61,0,110.9,13.17,22.78,289.8
"2009-05-07 00:59:30",864438,4.867,336.8,7.65,0.641,18.46,108.8335,21.9,22.9,14.24,0,110.9,13.17,22.73,298.8
"2009-05-07 01:00:00",864439,2.974,358.3,19.52,1.582,18.27,108.7824,21.77,22.84,16.72,0,110.9,13.17,22.60,320.3
"2009-05-07 01:00:30",864440,2.703,33.44,17.66,1.232,18.07,108.7486,21.68,22.77,20.29,0,110.9,13.17,22.51,355.4
"2009-05-07 01:01:00",864441,5.03,55.35,5.156,0.528,18.06,108.7285,21.63,22.74,20.86,0,110.9,13.17,22.46,17.3
"2009-05-07 01:01:30",864442,5.405,55.34,1.528,0.218,18.06,108.7294,21.63,22.72,22.34,0,110.9,13.17,22.46,17.3
"2009-05-07 01:02:00",864443,5.251,53.53,1.051,0.146,18.02,108.7269,21.63,22.7,22.74,0,110.9,13.17,22.45,15.5
"2009-05-07 01:02:30",864444,5.066,52.59,2.195,0.16,18.14,108.7264,21.62,22.7,22.6,0,110.9,13.17,22.45,14.6
"2009-05-07 01:03:00",864445,5.575,52.75,4.624,0.283,18.22,108.7264,21.62,22.66,22.13,0,110.9,13.17,22.45,14.8
"2009-05-07 01:03:30",864446,5.707,50.27,2.449,0.26,18.32,108.7041,21.57,22.65,21.84,0,110.9,13.17,22.39,12.3
"2009-05-07 01:04:00",864447,5.687,54.3,2.784,0.338,18.37,108.6933,21.54,22.63,21.45,0,110.9,13.17,22.37,16.3
"2009-05-07 01:04:30",864448,5.626,52.74,4.332,0.265,18.37,108.688,21.53,22.62,21.46,0,110.9,13.17,22.35,14.7
"2009-05-07 01:05:00",864449,5.852,46.55,2.197,0.332,18.4,108.6624,21.46,22.59,21.33,0,110.9,13.17,22.29,8.5
"2009-05-07 01:05:30",864450,5.443,58.53,6.989,0.516,18.4,108.6614,21.46,22.56,21.32,0,110.9,13.18,22.28,20.5
"2009-05-07 01:06:00",864451,5.576,58.29,6.607,0.751,18.49,108.6446,21.41,22.54,21.08,0,110.9,13.17,22.24,20.3
"2009-05-07 01:06:30",864452,4.421,66.71,3.387,0.144,18.59,108.6319,21.38,22.52,20.91,0,110.9,13.18,22.21,28.7
"2009-05-07 01:07:00",864453,4.593,59.34,5.601,0.463,18.63,108.6313,21.38,22.49,20.88,0,110.9,13.18,22.21,21.3
"2009-05-07 01:07:30",864454,4.652,65.29,3.441,0.357,18.68,108.6287,21.37,22.46,21.1,0,110.9,13.18,22.20,27.3
"2009-05-07 01:08:00",864455,5.39,57.65,11.44,0.32,18.76,108.6068,21.32,22.44,21.14,0,110.9,13.18,22.14,19.7
"2009-05-07 01:08:30",864456,3.348,28.8,7.519,0.764,18.81,108.6003,21.3,22.39,20.67,0,110.9,13.18,22.13,350.8
"2009-05-07 01:09:00",864457,4.333,36.27,7.283,0.609,18.59,108.5981,21.29,22.36,20.86,0,110.9,13.18,22.12,358.3
"2009-05-07 01:09:30",864458,4.218,55.01,6.76,0.346,18.46,108.5863,21.26,22.34,21.46,0,110.9,13.18,22.09,17.0
"2009-05-07 01:10:00",864459,2.575,23.24,23.77,0.854,18.57,108.5669,21.21,22.31,21.29,0,110.9,13.18,22.04,345.2
"2009-05-07 01:10:30",864460,3.457,28.44,12.88,0.69,18.54,108.5666,21.21,22.31,20.88,0,110.9,13.18,22.04,350.4
"2009-05-07 01:11:00",864461,3.672,66.39,11.57,0.559,18.18,108.5644,21.21,22.27,21.5,0,110.9,13.18,22.03,28.4
"2009-05-07 01:11:30",864462,4.634,55.71,8.31,0.392,18.07,108.5371,21.14,22.25,23.18,0,110.9,13.18,21.96,17.7
"2009-05-07 01:12:00",864463,4.668,46.35,5.204,0.345,18.15,108.5329,21.13,22.22,23.5,0,110.9,13.18,21.95,8.3
"2009-05-07 01:12:30",864464,2.949,56.02,9.51,1.048,18.07,108.5329,21.13,22.19,22.67,0,110.9,13.18,21.95,18.0
"2009-05-07 01:13:00",864465,3.565,64.41,9.93,1.273,18.1,108.5309,21.12,22.17,23.6,0,110.9,13.18,21.95,26.4
"2009-05-07 01:13:30",864466,4.986,58.82,11.45,0.49,18.18,108.5191,21.09,22.15,23.41,0,110.9,13.18,21.92,20.8
"2009-05-07 01:14:00",864467,4.549,46.85,5.223,0.543,18.58,108.4994,21.04,22.13,21.61,0,110.9,13.18,21.87,8.8
"2009-05-07 01:14:30",864468,5.179,63.18,1.425,0.326,18.36,108.4991,21.04,22.1,21.62,0,110.9,13.18,21.87,25.2
"2009-05-07 01:15:00",864469,4.802,57.27,3.517,0.286,18.54,108.4991,21.04,22.08,21.53,0,110.9,13.18,21.87,19.3
"2009-05-07 01:15:30",864470,4.996,61.3,5.296,0.272,18.51,108.4966,21.03,22.08,21.46,0,110.9,13.17,21.86,23.3
"2009-05-07 01:16:00",864471,4.422,52.41,5.506,0.415,18.6,108.4885,21.01,22.06,21.05,0,110.9,13.17,21.84,14.4
"2009-05-07 01:16:30",864472,5.373,63.51,2.375,0.343,18.64,108.4784,20.99,22.05,20.66,0,110.9,13.17,21.81,25.5
"2009-05-07 01:17:00",864473,5.846,64.28,2.188,0.313,18.58,108.4747,20.98,22.04,20.69,0,110.9,13.17,21.80,26.3
"2009-05-07 01:17:30",864474,6.007,56.95,4.864,0.228,18.48,108.4702,20.97,22.03,21.04,0,110.9,13.17,21.79,19.0
"2009-05-07 01:18:00",864475,5.87,53.4,2.484,0.173,18.52,108.4668,20.96,22.03,21.41,0,110.9,13.17,21.78,15.4
"2009-05-07 01:18:30",864476,6.119,49.12,2.622,0.477,18.53,108.4657,20.95,22.01,21.13,0,110.9,13.17,21.78,11.1
"2009-05-07 01:19:00",864477,6.647,54.29,2.537,0.412,18.61,108.4657,20.95,22.01,21.36,0,110.9,13.17,21.78,16.3
"2009-05-07 01:19:30",864478,6.346,58.31,2.561,0.17,18.64,108.4654,20.95,22.01,21.02,0,110.9,13.17,21.78,20.3
"2009-05-07 01:20:00",864479,6.438,56.21,3.061,0.343,18.51,108.4654,20.95,22.01,21.34,0,110.9,13.17,21.78,18.2
"2009-05-07 01:20:30",864480,6.907,58.55,1.277,0.221,18.41,108.4654,20.95,22.01,22.03,0,110.9,13.18,21.78,20.5
"2009-05-07 01:21:00",864481,6.888,61.33,1.777,0.541,18.49,108.4654,20.95,22,22.13,0,110.9,13.18,21.78,23.3
"2009-05-07 01:21:30",864482,6.308,58.94,4.016,0.207,18.56,108.4654,20.95,21.99,21.88,0,110.9,13.18,21.78,20.9
"2009-05-07 01:22:00",864483,6.455,59.18,1.963,0.159,18.66,108.464,20.95,21.97,21.41,0,110.9,13.18,21.78,21.2
"2009-05-07 01:22:30",864484,6.156,56.37,5.405,0.412,18.6,108.4528,20.92,21.96,21.57,0,110.9,13.18,21.75,18.4
"2009-05-07 01:23:00",864485,5.338,55.51,6.085,0.254,18.68,108.4424,20.89,21.97,21.14,0,110.9,13.18,21.72,17.5
"2009-05-07 01:23:30",864486,5.184,55.96,3.029,0.291,18.75,108.4353,20.88,21.96,20.64,0,110.9,13.18,21.70,18.0
"2009-05-07 01:24:00",864487,4.402,75.08,6.853,0.512,18.65,108.4323,20.87,21.95,20.88,0,110.9,13.18,21.69,37.1
"2009-05-07 01:24:30",864488,1.774,69.06,47.07,0.901,18.73,108.4317,20.87,21.94,20.53,0,110.9,13.18,21.69,31.1
"2009-05-07 01:25:00",864489,1.037,33.75,21.8,0.792,18.9,108.432,20.87,21.94,19.71,0,110.9,13.18,21.69,355.8
"2009-05-07 01:25:30",864490,1.893,44.17,13.91,0.512,18.9,108.4317,20.87,21.92,19.06,0,110.9,13.18,21.69,6.2
"2009-05-07 01:26:00",864491,4.094,78.75,7.828,1.024,18.79,108.4323,20.87,21.91,19.2,0,110.9,13.18,21.69,40.8
"2009-05-07 01:26:30",864492,5.537,81.3,2.603,0.396,18.7,108.4329,20.87,21.91,20.73,0,110.9,13.18,21.70,43.3
"2009-05-07 01:27:00",864493,6.047,84.1,6.475,0.462,18.73,108.4323,20.87,21.9,20.95,0,110.9,13.18,21.69,46.1
"2009-05-07 01:27:30",864494,5.113,89.3,4.084,0.661,18.79,108.4354,20.88,21.92,20.99,0,110.9,13.18,21.70,51.3
"2009-05-07 01:28:00",864495,4.165,87,5.037,0.374,18.86,108.4369,20.88,21.89,20.77,0,110.9,13.18,21.71,49.0
"2009-05-07 01:28:30",864496,4.465,81.7,10.79,0.302,18.95,108.439,20.89,21.9,20.52,0,110.9,13.18,21.71,43.7
"2009-05-07 01:29:00",864497,2.417,71.41,8.63,0.743,19.18,108.4411,20.89,21.9,19.37,0,110.9,13.18,21.72,33.4
"2009-05-07 01:29:30",864498,2.071,53.84,19.02,0.318,19.05,108.4457,20.9,21.89,18.97,0,110.9,13.18,21.73,15.8
"2009-05-07 01:30:00",864499,3.48,42.45,5.778,0.79,19.05,108.4427,20.9,21.88,19.37,0,110.9,13.18,21.72,4.5
"2009-05-07 01:30:30",864500,3.364,61.06,14.32,0.368,19.06,108.443,20.9,21.86,18.9,0,110.9,13.18,21.72,23.1
"2009-05-07 01:31:00",864501,3.228,76.78,6.773,0.381,19.03,108.4416,20.89,21.88,18.89,0,110.9,13.18,21.72,38.8
"2009-05-07 01:31:30",864502,2.773,81,11.79,0.345,18.95,108.4374,20.88,21.87,19.28,0,110.9,13.18,21.71,43.0
"2009-05-07 01:32:00",864503,2.77,89.8,9.71,0.904,18.87,108.4321,20.87,21.88,19.76,0,110.9,13.18,21.69,51.8
"2009-05-07 01:32:30",864504,4.395,79.85,3.428,0.24,18.79,108.4296,20.86,21.88,20.53,0,110.9,13.18,21.69,41.8
"2009-05-07 01:33:00",864505,4.555,81.4,2.345,0.257,18.76,108.4266,20.85,21.86,20.98,0,110.9,13.18,21.68,43.4
"2009-05-07 01:33:30",864506,4.553,78.84,3.598,0.378,18.92,108.4263,20.85,21.87,21.21,0,110.9,13.18,21.68,40.8
"2009-05-07 01:34:00",864507,3.537,70.7,2.999,0.24,18.99,108.43,20.86,21.87,20.67,0,110.9,13.18,21.69,32.7
"2009-05-07 01:34:30",864508,4.43,74.62,5.162,0.32,18.93,108.4297,20.86,21.86,20.92,0,110.9,13.18,21.69,36.6
"2009-05-07 01:35:00",864509,4.664,75.33,5.66,0.371,18.92,108.4315,20.87,21.85,21.3,0,110.9,13.18,21.69,37.3
"2009-05-07 01:35:30",864510,3.908,61.96,3.24,0.303,19.07,108.4337,20.87,21.84,20.94,0,110.9,13.18,21.70,24.0
"2009-05-07 01:36:00",864511,3.802,60.93,4.297,0.31,19.02,108.4219,20.84,21.85,20.79,0,110.9,13.18,21.67,22.9
"2009-05-07 01:36:30",864512,4.012,66.58,3.689,0.353,19.03,108.4067,20.8,21.83,20.78,0,110.9,13.18,21.63,28.6
"2009-05-07 01:37:00",864513,4.605,67.4,2.488,0.219,18.94,108.4008,20.79,21.83,21.27,0,110.9,13.18,21.61,29.4
"2009-05-07 01:37:30",864514,5.077,69.79,1.466,0.262,18.8,108.4008,20.79,21.82,21.6,0,110.9,13.18,21.61,31.8
"2009-05-07 01:38:00",864515,5.73,68.06,0.995,0.258,18.71,108.4005,20.79,21.81,21.91,0,110.9,13.19,21.61,30.1
"2009-05-07 01:38:30",864516,5.63,68.09,0.795,0.088,18.7,108.3898,20.76,21.78,21.97,0,110.9,13.19,21.58,30.1
"2009-05-07 01:39:00",864517,6.241,69.81,1.402,0.397,18.73,108.3688,20.71,21.77,22.05,0,110.9,13.19,21.53,31.8
"2009-05-07 01:39:30",864518,5.408,61.69,5.725,0.525,18.87,108.3671,20.7,21.75,21.76,0,110.9,13.19,21.53,23.7
"2009-05-07 01:40:00",864519,3.814,53.26,10.89,0.686,19.02,108.3637,20.69,21.73,21.45,0,110.9,13.2,21.52,15.3
"2009-05-07 01:40:30",864520,3.857,54.82,10.63,0.578,19.02,108.3446,20.64,21.73,21.09,0,110.9,13.2,21.47,16.8
"2009-05-07 01:41:00",864521,3.53,66.75,3.571,0.224,19.08,108.3333,20.61,21.69,20.95,0,110.8,13.2,21.44,28.8
"2009-05-07 01:41:30",864522,3.481,62.62,7.972,0.507,18.99,108.333,20.61,21.69,20.98,0,110.8,13.2,21.44,24.6
"2009-05-07 01:42:00",864523,4.587,51.28,4.063,0.374,18.81,108.3246,20.59,21.65,21.48,0,110.8,13.2,21.42,13.3
"2009-05-07 01:42:30",864524,4.719,56.76,5.771,0.429,18.8,108.3007,20.53,21.63,21.76,0,110.8,13.2,21.35,18.8
"2009-05-07 01:43:00",864525,5.173,51.18,1.19,0.062,18.73,108.2996,20.53,21.62,22,0,110.8,13.2,21.35,13.2
"2009-05-07 01:43:30",864526,5.168,49.91,0.725,0.059,18.76,108.299,20.53,21.59,22.22,0,110.8,13.2,21.35,11.9
"2009-05-07 01:44:00",864527,5.05,50.04,0.798,0.104,18.75,108.2836,20.49,21.58,22.37,0,110.8,13.2,21.31,12.0
"2009-05-07 01:44:30",864528,4.771,52.88,1.191,0.077,18.78,108.2659,20.44,21.57,22.39,0,110.8,13.2,21.27,14.9
"2009-05-07 01:45:00",864529,4.865,56.51,0.683,0.064,18.67,108.2665,20.44,21.54,22.63,0,110.8,13.2,21.27,18.5
"2009-05-07 01:45:30",864530,4.937,60.1,1.175,0.119,18.67,108.2634,20.44,21.52,22.88,0,110.8,13.2,21.26,22.1
"2009-05-07 01:46:00",864531,5.276,61.45,0.98,0.095,18.66,108.2415,20.38,21.5,23.36,0,110.8,13.2,21.20,23.5
"2009-05-07 01:46:30",864532,5.607,64.9,1.072,0.125,18.53,108.2355,20.36,21.48,23.65,0,110.8,13.2,21.19,26.9
"2009-05-07 01:47:00",864533,5.816,61.24,1.664,0.132,18.56,108.2391,20.37,21.46,23.88,0,110.8,13.2,21.20,23.2
"2009-05-07 01:47:30",864534,3.692,38.84,26.77,1.989,18.25,108.2144,20.31,21.43,25.1,0,110.8,13.2,21.13,0.8
"2009-05-07 01:48:00",864535,1.908,34.29,21.06,0.847,18.08,108.1615,20.17,21.36,26.58,0,110.8,13.2,21.00,356.3
"2009-05-07 01:48:30",864536,2.09,318.1,46.88,1.318,18.08,108.1362,20.11,21.28,27.15,0,110.8,13.2,20.93,280.1